Wenn Sie den Mauscursor in der Übersichtskarte über ein Stationssymbol ziehen, so werden die aktuellen Stationsdaten eingeblendet. Neben dem Stationsnamen wird der Zeitpunkt in MEZ eingeblendet, bis zu dem aktuelle Daten verfügbar sind. Zunächst wird die aktuelle Niederschlagsumme für das letzte Messintervall angegeben (15 Minuten). Dadurch wird ersichtlich, ob und in welcher Intensität es regnet. Danach wird die Niederschlagsumme für die vergangenen 24 Stunden angegeben. Der aktuelle Lufttemperaturwert rundet die Information zum Mouse - Over ab.   

Durch Anklicken des entsprechenden Stationssymbols gelangen Sie zu den Gangliniendarstellung der Niederschlagshöhe und der Lufttemperatur. Jeder Parameter ist für einen Zeitraum für 30 Tage dargestellt. 

Wo verfügbar, stellen wir die Niederschlagsverhältnisse des aktuellen Kalenderjahres und des Vorjahres den langjährigen Vergleichsreihen grafisch auf 2 Arten gegenüber.

Eine Grafik wird in Form von Summenlinien erstellt. In dieser wird die Niederschlagssumme für das aktuelle Kalenderjahr und jenes davor ab Jahresbeginn tageweise aufsummiert und so den Vergleichszeitreihen (ebenso als minimale, mittlere und maximale Summenlinien dargestellt) gegenübergestellt.

In einer anderen Grafik vergleichen wir die Niederschlags - Monatssummen des aktuellen Kalenderjahres und des Vorjahres mit den langjährigen Vergleichsreihen. Dabei stellen wir für die Vergleichszeitreihen das langjährige Mittel, das Maximum und das Minimum für jedes Monat dar.

Zudem können Sie die Daten für die letzten 30 Tage downloaden.

Die  Stationssymbole auf der Übersichtskarte werden entsprechend der Niederschlagshöhe in den letzten 24 Stunden vor dem angegebenen Zeitpunkt bei der jeweiligen Station eingefärbt (siehe dazu Legende neben der Übersichtskarte).

Abschließend haben wir für Sie eine Übersichtstabelle unterhalb der Übersichtskarte angefügt. Hier werden die Niederschlagsstationen des Burgenlandes alphabetisch aufgelistet die aktuellen Messwerte dargestellt und es besteht die Möglichkeit der Navigation zu den bereits beschriebenen grafischen Darstellungen.

Stationsname Zeit [MEZ] NS [mm/15min] NS [mm/24h] Temp [°C] Luftfeuchte [%]
Andau 04.12.2022 10:00 0,0 0,0 3,6
Apetlon - A79 04.12.2022 10:00 0,0 0,0 5,0 100,0
Aspang 04.12.2022 10:00 0,0 0,1 3,6
Bad Tatzmannsdorf 04.12.2022 10:00 0,0 1,0 3,3
Bernstein 04.12.2022 10:00 0,0 1,1 1,7
Bonisdorf 04.12.2022 10:00 0,0 1,6 2,3 100,0
Bruckneudorf 04.12.2022 10:00 0,0 0,0 3,5
Deutsch Jahrndorf 04.12.2022 10:00 0,0 0,0 4,3 100,0
Deutsch Kaltenbrunn 04.12.2022 10:00 0,0 0,6 2,3
Deutschkreutz 04.12.2022 10:00 0,0 0,6 4,2 100,0
Donnerskirchen 04.12.2022 10:00 0,0 0,0 3,7 95,0
Drassburg 04.12.2022 10:00 0,0 0,0 3,6 100,0
Dürnbach 04.12.2022 10:00 0,0 0,5 2,9 100,0
Eisenstadt 04.12.2022 10:00 0,0 0,0 3,5 100,0
Feldbach 04.12.2022 10:00 0,0 1,2 3,0
Fischbach 04.12.2022 10:00 0,0 0,1 -0,3
Frankenau 04.12.2022 10:00 0,0 0,1 3,8 100,0
Frauenkirchen 04.12.2022 10:00 0,0 0,1 3,8 100,0
Fürstenfeld 04.12.2022 10:00 0,0 1,3 3,5
Gattendorf 04.12.2022 10:00 0,0 0,0 4,2 97,0
Glasing 04.12.2022 10:00 0,0 0,2 3,7
Gleisdorf 04.12.2022 10:00 0,0 0,6 2,8
Halbturn 04.12.2022 10:00 0,0 0,0 4,2 100,0
Heiligenkreuz 04.12.2022 10:00 0,0 1,2 3,9 100,0
Hirschenkogel 04.12.2022 10:00 0,0 0,0 2,8
Hirschenstein 04.12.2022 10:00 0,0 0,1 0,1 100,0
Illmitz - Biologische Station 04.12.2022 10:00 0,0 0,0 4,4
Karl 04.12.2022 10:00 0,0 0,0 3,0 100,0
Kleinzicken 04.12.2022 10:00 0,0 0,4 3,5
Kobersdorf 04.12.2022 10:00 0,0 0,0 2,7 100,0
Lutzmannsburg 04.12.2022 10:00 0,0 0,3 3,6
Mattersburg 04.12.2022 10:00 0,0 0,0 3,6
Moenichkirchen 04.12.2022 10:00 0,0 0,0 0,0
Nebersdorf 04.12.2022 10:00 0,0 0,1 4,0 100,0
Neumarkt an der Raab 04.12.2022 10:00 0,0 1,3 4,1 100,0
Neusiedl am See 04.12.2022 10:00 0,0 0,0 4,0
Neustift an der Rosalia 04.12.2022 10:00 0,0 0,0 1,6 100,0
Nickelsdorf 04.12.2022 10:00 0,0 0,0 4,5 100,0
Nikitsch 04.12.2022 10:00 0,0 0,4 3,8 100,0
Oberpullendorf 04.12.2022 10:00 0,0 0,1 4,3 100,0
Oberwart 04.12.2022 10:00 0,0 0,7 3,8 100,0
Pinkafeld 04.12.2022 10:00 0,0 0,9 2,3 100,0
Pottschach 04.12.2022 10:00 0,0 0,0 3,3
Puchberg 04.12.2022 10:00 0,0 0,0 2,2
Ritzing 04.12.2022 10:00 0,0 0,5 3,2 100,0
Rust 04.12.2022 10:00 0,0 0,0 4,2 100,0
Seibersdorf 04.12.2022 10:00 0,0 0,0 3,6
Sieggraben 04.12.2022 10:00 0,0 0,0 1,7 100,0
St. Margarethen - Berg 04.12.2022 10:00 0,0 0,2 3,5 100,0
St. Michael 04.12.2022 10:00 0,0 0,6 2,5 100,0
Stadtschlaining 04.12.2022 10:00 0,0 1,2 2,6 48,0
Trausdorf 04.12.2022 10:00 0,0 0,1 3,4 100,0
Wiener Neustadt 04.12.2022 10:00 0,0 0,0 3,9
Woerterberg 04.12.2022 10:00 0,0 0,9 2,8
Wulkaprodersdorf 04.12.2022 10:00 0,0 0,0 4,5 100,0
Zurndorf - Friedrichshof 04.12.2022 10:00 0,0 0,1 4,6 100,0